When you browse on this site, cookies collect data to enhance your experience and personalize the content and advertising you see.
Visit our Privacy Policy to learn more. By continuing to use the site, you agree to this use of cookies and data.
  • In Belgien
  • Länderverzeichnis
  • Für 7 Tage
  • Wassertemperatur
  • Satellitenkarten
  • Wetterkarte
  • Widgets
  • user-avatar
    Anmelden

    Stündliche Wetter Brisbane

    Heute, 24 Mai, Freitag

    Zeit Temperatur Niederschläge Wind Luftdruck Luftfeuchtigkeit
    00:00 +17°C° 0.1 mm 2 m/S 766 mmHg 89%
    01:00 +17°C° 0.1 mm 2 m/S 766 mmHg 89%
    02:00 +17°C° 0 mm 2 m/S 766 mmHg 90%
    03:00 +16°C° 0 mm 2 m/S 766 mmHg 90%
    04:00 +16°C° 0 mm 2 m/S 766 mmHg 91%
    05:00 +16°C° 0 mm 2 m/S 766 mmHg 91%
    06:00 +16°C° 0 mm 2 m/S 766 mmHg 90%
    07:00 +16°C° 0 mm 2 m/S 766 mmHg 90%
    08:00 +18°C° 0 mm 2 m/S 766 mmHg 80%
    09:00 +20°C° 0 mm 2 m/S 766 mmHg 71%
    10:00 +24°C° 0 mm 2 m/S 766 mmHg 62%
    11:00 +25°C° 0 mm 2 m/S 765 mmHg 58%
    12:00 +25°C° 0 mm 2 m/S 764 mmHg 54%
    13:00 +26°C° 0 mm 2 m/S 764 mmHg 50%
    14:00 +26°C° 0.1 mm 2 m/S 764 mmHg 55%
    15:00 +25°C° 0.1 mm 3 m/S 764 mmHg 60%
    16:00 +24°C° 0.1 mm 3 m/S 763 mmHg 65%
    17:00 +22°C° 0.1 mm 3 m/S 764 mmHg 71%
    18:00 +20°C° 0.1 mm 2 m/S 764 mmHg 78%
    19:00 +19°C° 0.1 mm 2 m/S 764 mmHg 84%
    20:00 +19°C° 0 mm 2 m/S 764 mmHg 85%
    21:00 +19°C° 0 mm 1 m/S 765 mmHg 86%
    22:00 +19°C° 0 mm 1 m/S 765 mmHg 87%
    23:00 +19°C° 0 mm 1 m/S 765 mmHg 88%

    Morgen, 25 Mai, Samstag

    Zeit Temperatur Niederschläge Wind Luftdruck Luftfeuchtigkeit
    00:00 +18°C° 0 mm 1 m/S 765 mmHg 90%
    01:00 +17°C° 0 mm 2 m/S 764 mmHg 91%
    02:00 +17°C° 0 mm 2 m/S 764 mmHg 92%
    03:00 +17°C° 0 mm 2 m/S 764 mmHg 93%
    04:00 +16°C° 0 mm 2 m/S 764 mmHg 93%
    05:00 +16°C° 0 mm 2 m/S 764 mmHg 93%
    06:00 +16°C° 0 mm 2 m/S 764 mmHg 92%
    07:00 +16°C° 0 mm 2 m/S 764 mmHg 92%
    08:00 +18°C° 0 mm 2 m/S 764 mmHg 82%
    09:00 +22°C° 0 mm 1 m/S 764 mmHg 73%
    10:00 +24°C° 0 mm 1 m/S 764 mmHg 63%
    11:00 +25°C° 0 mm 1 m/S 763 mmHg 56%
    12:00 +26°C° 0 mm 1 m/S 763 mmHg 50%
    13:00 +27°C° 0 mm 1 m/S 762 mmHg 43%
    14:00 +26°C° 0 mm 1 m/S 762 mmHg 47%
    15:00 +25°C° 0 mm 2 m/S 762 mmHg 51%
    16:00 +24°C° 0 mm 2 m/S 761 mmHg 55%
    17:00 +23°C° 0 mm 2 m/S 762 mmHg 62%
    18:00 +21°C° 0 mm 2 m/S 762 mmHg 69%
    19:00 +20°C° 0 mm 2 m/S 763 mmHg 76%
    20:00 +20°C° 0 mm 1 m/S 763 mmHg 79%
    21:00 +20°C° 0 mm 1 m/S 763 mmHg 81%
    22:00 +19°C° 0 mm 1 m/S 763 mmHg 83%
    23:00 +19°C° 0 mm 1 m/S 763 mmHg 85%

    übermorgen, 26 Mai, Sonntag

    Zeit Temperatur Niederschläge Wind Luftdruck Luftfeuchtigkeit
    00:00 +18°C° 0 mm 1 m/S 762 mmHg 87%
    01:00 +18°C° 0 mm 1 m/S 762 mmHg 88%
    02:00 +18°C° 0 mm 1 m/S 762 mmHg 88%
    03:00 +16°C° 0 mm 2 m/S 762 mmHg 89%
    04:00 +16°C° 0 mm 2 m/S 762 mmHg 89%
    05:00 +16°C° 0 mm 2 m/S 762 mmHg 86%
    06:00 +15°C° 0 mm 2 m/S 762 mmHg 84%
    07:00 +15°C° 0 mm 2 m/S 763 mmHg 82%
    08:00 +18°C° 0 mm 2 m/S 762 mmHg 70%
    09:00 +20°C° 0 mm 2 m/S 762 mmHg 58%
    10:00 +24°C° 0 mm 2 m/S 762 mmHg 46%
    11:00 +25°C° 0 mm 2 m/S 762 mmHg 40%
    12:00 +27°C° 0 mm 1 m/S 761 mmHg 34%
    13:00 +28°C° 0 mm 1 m/S 760 mmHg 28%
    14:00 +27°C° 0 mm 1 m/S 760 mmHg 32%
    15:00 +27°C° 0 mm 2 m/S 760 mmHg 35%
    16:00 +26°C° 0 mm 2 m/S 760 mmHg 38%
    17:00 +25°C° 0 mm 2 m/S 760 mmHg 45%
    18:00 +23°C° 0 mm 2 m/S 760 mmHg 52%
    19:00 +20°C° 0 mm 2 m/S 761 mmHg 58%
    20:00 +19°C° 0 mm 2 m/S 761 mmHg 60%
    21:00 +19°C° 0 mm 2 m/S 761 mmHg 62%
    22:00 +18°C° 0 mm 2 m/S 761 mmHg 63%
    23:00 +17°C° 0 mm 2 m/S 761 mmHg 61%

    27 Mai, Montag

    Zeit Temperatur Niederschläge Wind Luftdruck Luftfeuchtigkeit
    00:00 +17°C° 0 mm 2 m/S 761 mmHg 58%
    01:00 +16°C° 0 mm 2 m/S 760 mmHg 55%
    02:00 +16°C° 0 mm 2 m/S 760 mmHg 54%
    03:00 +16°C° 0 mm 2 m/S 760 mmHg 53%
    04:00 +16°C° 0 mm 2 m/S 760 mmHg 52%
    05:00 +16°C° 0 mm 2 m/S 760 mmHg 52%
    06:00 +16°C° 0 mm 3 m/S 761 mmHg 52%
    07:00 +16°C° 0 mm 3 m/S 761 mmHg 52%
    08:00 +18°C° 0 mm 3 m/S 761 mmHg 47%
    09:00 +21°C° 0 mm 3 m/S 761 mmHg 41%
    10:00 +25°C° 0 mm 3 m/S 761 mmHg 36%
    11:00 +26°C° 0 mm 3 m/S 761 mmHg 33%
    12:00 +27°C° 0 mm 3 m/S 760 mmHg 30%
    13:00 +28°C° 0 mm 3 m/S 759 mmHg 27%
    14:00 +28°C° 0 mm 3 m/S 759 mmHg 28%
    15:00 +27°C° 0 mm 3 m/S 759 mmHg 30%
    16:00 +26°C° 0 mm 3 m/S 759 mmHg 31%
    17:00 +24°C° 0 mm 3 m/S 760 mmHg 32%
    18:00 +21°C° 0 mm 4 m/S 760 mmHg 33%
    19:00 +20°C° 0 mm 4 m/S 761 mmHg 34%
    20:00 +18°C° 0 mm 4 m/S 761 mmHg 34%
    21:00 +17°C° 0 mm 4 m/S 762 mmHg 35%
    22:00 +15°C° 0 mm 4 m/S 762 mmHg 36%
    23:00 +15°C° 0 mm 4 m/S 762 mmHg 39%

    28 Mai, Dienstag

    Zeit Temperatur Niederschläge Wind Luftdruck Luftfeuchtigkeit
    00:00 +14°C° 0 mm 3 m/S 762 mmHg 41%
    01:00 +13°C° 0 mm 3 m/S 762 mmHg 44%
    02:00 +13°C° 0 mm 3 m/S 762 mmHg 45%
    03:00 +12°C° 0 mm 3 m/S 762 mmHg 46%
    04:00 +12°C° 0 mm 3 m/S 762 mmHg 47%
    05:00 +12°C° 0 mm 3 m/S 762 mmHg 48%
    06:00 +12°C° 0 mm 3 m/S 763 mmHg 49%
    07:00 +12°C° 0 mm 2 m/S 763 mmHg 50%
    08:00 +15°C° 0 mm 2 m/S 763 mmHg 46%
    09:00 +18°C° 0 mm 2 m/S 763 mmHg 41%
    10:00 +21°C° 0 mm 2 m/S 763 mmHg 36%
    11:00 +23°C° 0 mm 2 m/S 762 mmHg 35%
    12:00 +24°C° 0 mm 1 m/S 762 mmHg 35%
    13:00 +26°C° 0 mm 1 m/S 761 mmHg 34%
    14:00 +25°C° 0 mm 1 m/S 761 mmHg 36%
    15:00 +25°C° 0 mm 2 m/S 761 mmHg 38%
    16:00 +24°C° 0 mm 2 m/S 760 mmHg 40%
    17:00 +21°C° 0 mm 2 m/S 761 mmHg 46%
    18:00 +19°C° 0 mm 2 m/S 761 mmHg 52%
    19:00 +18°C° 0 mm 2 m/S 762 mmHg 58%
    20:00 +17°C° 0 mm 2 m/S 762 mmHg 54%
    21:00 +16°C° 0 mm 2 m/S 762 mmHg 50%
    22:00 +14°C° 0 mm 3 m/S 762 mmHg 47%
    23:00 +13°C° 0 mm 3 m/S 762 mmHg 47%

    29 Mai, Mittwoch

    Zeit Temperatur Niederschläge Wind Luftdruck Luftfeuchtigkeit
    00:00 +13°C° 0 mm 3 m/S 762 mmHg 48%
    01:00 +12°C° 0 mm 3 m/S 762 mmHg 48%
    02:00 +12°C° 0 mm 3 m/S 762 mmHg 50%
    03:00 +11°C° 0 mm 3 m/S 762 mmHg 51%
    04:00 +11°C° 0 mm 3 m/S 762 mmHg 53%
    05:00 +11°C° 0 mm 3 m/S 762 mmHg 54%
    06:00 +11°C° 0 mm 3 m/S 762 mmHg 56%
    07:00 +10°C° 0 mm 3 m/S 763 mmHg 57%
    08:00 +13°C° 0 mm 3 m/S 763 mmHg 51%
    09:00 +17°C° 0 mm 3 m/S 762 mmHg 44%
    10:00 +19°C° 0 mm 4 m/S 762 mmHg 37%
    11:00 +21°C° 0 mm 4 m/S 761 mmHg 34%
    12:00 +22°C° 0 mm 3 m/S 761 mmHg 30%
    13:00 +24°C° 0 mm 3 m/S 760 mmHg 27%
    14:00 +24°C° 0 mm 3 m/S 760 mmHg 28%
    15:00 +24°C° 0 mm 3 m/S 760 mmHg 30%
    16:00 +22°C° 0 mm 3 m/S 759 mmHg 31%
    17:00 +20°C° 0 mm 3 m/S 760 mmHg 34%
    18:00 +19°C° 0 mm 3 m/S 760 mmHg 37%
    19:00 +17°C° 0 mm 3 m/S 761 mmHg 40%
    20:00 +16°C° 0 mm 3 m/S 761 mmHg 42%
    21:00 +14°C° 0 mm 3 m/S 761 mmHg 44%
    22:00 +13°C° 0 mm 3 m/S 762 mmHg 47%
    23:00 +13°C° 0 mm 3 m/S 762 mmHg 48%
    Mehr zeigen